Year,Month,Day,Hour,Minute,Value (Times are PST for temperature in C)
2018,04,24,00,00,9.20
2018,04,24,00,01,9.20
2018,04,24,00,02,9.20
2018,04,24,00,03,9.20
2018,04,24,00,04,9.20
2018,04,24,00,05,9.20
2018,04,24,00,06,9.20
2018,04,24,00,07,9.10
2018,04,24,00,08,9.10
2018,04,24,00,09,9.10
2018,04,24,00,10,9.00
2018,04,24,00,11,8.90
2018,04,24,00,12,8.90
2018,04,24,00,13,8.80
2018,04,24,00,14,8.80
2018,04,24,00,15,8.70
2018,04,24,00,16,8.70
2018,04,24,00,17,8.70
2018,04,24,00,18,8.70
2018,04,24,00,19,8.60
2018,04,24,00,20,8.60
2018,04,24,00,21,8.50
2018,04,24,00,22,8.50
2018,04,24,00,23,8.50
2018,04,24,00,24,8.50
2018,04,24,00,25,8.50
2018,04,24,00,26,8.60
2018,04,24,00,27,8.60
2018,04,24,00,28,8.60
2018,04,24,00,29,8.60
2018,04,24,00,30,8.60
2018,04,24,00,31,8.70
2018,04,24,00,32,8.60
2018,04,24,00,33,8.60
2018,04,24,00,34,8.70
2018,04,24,00,35,8.70
2018,04,24,00,36,8.70
2018,04,24,00,37,8.70
2018,04,24,00,38,8.70
2018,04,24,00,39,8.70
2018,04,24,00,40,8.70
2018,04,24,00,41,8.70
2018,04,24,00,42,8.70
2018,04,24,00,43,8.80
2018,04,24,00,44,8.80
2018,04,24,00,45,8.80
2018,04,24,00,46,8.80
2018,04,24,00,47,8.80
2018,04,24,00,48,8.80
2018,04,24,00,49,8.80
2018,04,24,00,50,8.70
2018,04,24,00,51,8.70
2018,04,24,00,52,8.70
2018,04,24,00,53,8.70
2018,04,24,00,54,8.70
2018,04,24,00,55,8.60
2018,04,24,00,56,8.60
2018,04,24,00,57,8.60
2018,04,24,00,58,8.50
2018,04,24,00,59,8.50
2018,04,24,01,00,8.40
2018,04,24,01,01,8.30
2018,04,24,01,02,8.30
2018,04,24,01,03,8.30
2018,04,24,01,04,8.20
2018,04,24,01,05,8.20
2018,04,24,01,06,8.20
2018,04,24,01,07,8.20
2018,04,24,01,08,8.20
2018,04,24,01,09,8.20
2018,04,24,01,10,8.10
2018,04,24,01,11,8.10
2018,04,24,01,12,8.10
2018,04,24,01,13,8.00
2018,04,24,01,14,8.00
2018,04,24,01,15,8.00
2018,04,24,01,16,8.00
2018,04,24,01,17,8.10
2018,04,24,01,18,8.10
2018,04,24,01,19,8.10
2018,04,24,01,20,8.10
2018,04,24,01,21,8.20
2018,04,24,01,22,8.20
2018,04,24,01,23,8.20
2018,04,24,01,24,8.30
2018,04,24,01,25,8.30
2018,04,24,01,26,8.30
2018,04,24,01,27,8.30
2018,04,24,01,28,8.30
2018,04,24,01,29,8.30
2018,04,24,01,30,8.30
2018,04,24,01,31,8.20
2018,04,24,01,32,8.20
2018,04,24,01,33,8.20
2018,04,24,01,34,8.10
2018,04,24,01,35,8.00
2018,04,24,01,36,8.00
2018,04,24,01,37,7.90
2018,04,24,01,38,7.80
2018,04,24,01,39,7.80
2018,04,24,01,40,7.70
2018,04,24,01,41,7.60
2018,04,24,01,42,7.60
2018,04,24,01,43,7.60
2018,04,24,01,44,7.60
2018,04,24,01,45,7.60
2018,04,24,01,46,7.60
2018,04,24,01,47,7.50
2018,04,24,01,48,7.50
2018,04,24,01,49,7.50
2018,04,24,01,50,7.40
2018,04,24,01,51,7.30
2018,04,24,01,52,7.30
2018,04,24,01,53,7.30
2018,04,24,01,54,7.30
2018,04,24,01,55,7.30
2018,04,24,01,56,7.40
2018,04,24,01,57,7.40
2018,04,24,01,58,7.40
2018,04,24,01,59,7.50
2018,04,24,02,00,7.50
2018,04,24,02,01,7.60
2018,04,24,02,02,7.60
2018,04,24,02,03,7.70
2018,04,24,02,04,7.70
2018,04,24,02,05,7.70
2018,04,24,02,06,7.70
2018,04,24,02,07,7.70
2018,04,24,02,08,7.80
2018,04,24,02,09,7.80
2018,04,24,02,10,7.80
2018,04,24,02,11,7.70
2018,04,24,02,12,7.70
2018,04,24,02,13,7.70
2018,04,24,02,14,7.70
2018,04,24,02,15,7.70
2018,04,24,02,16,7.70
2018,04,24,02,17,7.70
2018,04,24,02,18,7.70
2018,04,24,02,19,7.70
2018,04,24,02,20,7.70
2018,04,24,02,21,7.70
2018,04,24,02,22,7.70
2018,04,24,02,23,7.70
2018,04,24,02,24,7.70
2018,04,24,02,25,7.70
2018,04,24,02,26,7.70
2018,04,24,02,27,7.70
2018,04,24,02,28,7.70
2018,04,24,02,29,7.70
2018,04,24,02,30,7.70
2018,04,24,02,31,7.60
2018,04,24,02,32,7.60
2018,04,24,02,33,7.60
2018,04,24,02,34,7.50
2018,04,24,02,35,7.50
2018,04,24,02,36,7.40
2018,04,24,02,37,7.40
2018,04,24,02,38,7.40
2018,04,24,02,39,7.40
2018,04,24,02,40,7.40
2018,04,24,02,41,7.40
2018,04,24,02,42,7.40
2018,04,24,02,43,7.40
2018,04,24,02,44,7.30
2018,04,24,02,45,7.40
2018,04,24,02,46,7.30
2018,04,24,02,47,7.30
2018,04,24,02,48,7.30
2018,04,24,02,49,7.30
2018,04,24,02,50,7.30
2018,04,24,02,51,7.30
2018,04,24,02,52,7.40
2018,04,24,02,53,7.40
2018,04,24,02,54,7.40
2018,04,24,02,55,7.50
2018,04,24,02,56,7.60
2018,04,24,02,57,7.60
2018,04,24,02,58,7.60
2018,04,24,02,59,7.60
2018,04,24,03,00,7.60
2018,04,24,03,01,7.70
2018,04,24,03,02,7.70
2018,04,24,03,03,7.70
2018,04,24,03,04,7.70
2018,04,24,03,05,7.70
2018,04,24,03,06,7.80
2018,04,24,03,07,7.80
2018,04,24,03,08,7.80
2018,04,24,03,09,7.90
2018,04,24,03,10,7.90
2018,04,24,03,11,7.90
2018,04,24,03,12,7.90
2018,04,24,03,13,7.90
2018,04,24,03,14,7.90
2018,04,24,03,15,7.90
2018,04,24,03,16,7.90
2018,04,24,03,17,7.80
2018,04,24,03,18,7.80
2018,04,24,03,19,7.70
2018,04,24,03,20,7.70
2018,04,24,03,21,7.60
2018,04,24,03,22,7.60
2018,04,24,03,23,7.50
2018,04,24,03,24,7.50
2018,04,24,03,25,7.40
2018,04,24,03,26,7.40
2018,04,24,03,27,7.40
2018,04,24,03,28,7.30
2018,04,24,03,29,7.30
2018,04,24,03,30,7.40
2018,04,24,03,31,7.40
2018,04,24,03,32,7.50
2018,04,24,03,33,7.60
2018,04,24,03,34,7.70
2018,04,24,03,35,7.80
2018,04,24,03,36,7.80
2018,04,24,03,37,8.00
2018,04,24,03,38,8.00
2018,04,24,03,39,8.10
2018,04,24,03,40,8.10
2018,04,24,03,41,8.10
2018,04,24,03,42,8.10
2018,04,24,03,43,8.20
2018,04,24,03,44,8.20
2018,04,24,03,45,8.20
2018,04,24,03,46,8.20
2018,04,24,03,47,8.10
2018,04,24,03,48,8.10
2018,04,24,03,49,8.00
2018,04,24,03,50,7.90
2018,04,24,03,51,7.80
2018,04,24,03,52,7.60
2018,04,24,03,53,7.50
2018,04,24,03,54,7.40
2018,04,24,03,55,7.30
2018,04,24,03,56,7.20
2018,04,24,03,57,7.10
2018,04,24,03,58,7.10
2018,04,24,03,59,7.00
2018,04,24,04,00,6.90
2018,04,24,04,01,6.80
2018,04,24,04,02,6.80
2018,04,24,04,03,6.80
2018,04,24,04,04,6.70
2018,04,24,04,05,6.70
2018,04,24,04,06,6.70
2018,04,24,04,07,6.70
2018,04,24,04,08,6.70
2018,04,24,04,09,6.70
2018,04,24,04,10,6.80
2018,04,24,04,11,6.80
2018,04,24,04,12,6.80
2018,04,24,04,13,6.80
2018,04,24,04,14,6.80
2018,04,24,04,15,6.80
2018,04,24,04,16,6.70
2018,04,24,04,17,6.70
2018,04,24,04,18,6.70
2018,04,24,04,19,6.70
2018,04,24,04,20,6.70
2018,04,24,04,21,6.70
2018,04,24,04,22,6.60
2018,04,24,04,23,6.60
2018,04,24,04,24,6.60
2018,04,24,04,25,6.50
2018,04,24,04,26,6.50
2018,04,24,04,27,6.40
2018,04,24,04,28,6.40
2018,04,24,04,29,6.30
2018,04,24,04,30,6.30
2018,04,24,04,31,6.30
2018,04,24,04,32,6.30
2018,04,24,04,33,6.20
2018,04,24,04,34,6.20
2018,04,24,04,35,6.20
2018,04,24,04,36,6.20
2018,04,24,04,37,6.20
2018,04,24,04,38,6.20
2018,04,24,04,39,6.20
2018,04,24,04,40,6.20
2018,04,24,04,41,6.20
2018,04,24,04,42,6.20
2018,04,24,04,43,6.20
2018,04,24,04,44,6.20
2018,04,24,04,45,6.20
2018,04,24,04,46,6.20
2018,04,24,04,47,6.20
2018,04,24,04,48,6.20
2018,04,24,04,49,6.20
2018,04,24,04,50,6.20
2018,04,24,04,51,6.20
2018,04,24,04,52,6.20
2018,04,24,04,53,6.20
2018,04,24,04,54,6.20
2018,04,24,04,55,6.40
2018,04,24,04,56,6.40
2018,04,24,04,57,6.50
2018,04,24,04,58,6.50
2018,04,24,04,59,6.60
2018,04,24,05,00,6.60
2018,04,24,05,01,6.60
2018,04,24,05,02,6.70
2018,04,24,05,03,6.70
2018,04,24,05,04,6.70
2018,04,24,05,05,6.70
2018,04,24,05,06,6.80
2018,04,24,05,07,6.80
2018,04,24,05,08,6.80
2018,04,24,05,09,6.80
2018,04,24,05,10,6.90
2018,04,24,05,11,6.90
2018,04,24,05,12,7.00
2018,04,24,05,13,7.10
2018,04,24,05,14,7.10
2018,04,24,05,15,7.10
2018,04,24,05,16,7.10
2018,04,24,05,17,7.10
2018,04,24,05,18,7.10
2018,04,24,05,19,7.10
2018,04,24,05,20,7.10
2018,04,24,05,21,7.20
2018,04,24,05,22,7.10
2018,04,24,05,23,7.10
2018,04,24,05,24,7.10
2018,04,24,05,25,7.00
2018,04,24,05,26,7.00
2018,04,24,05,27,6.90
2018,04,24,05,28,6.90
2018,04,24,05,29,6.90
2018,04,24,05,30,6.80
2018,04,24,05,31,6.80
2018,04,24,05,32,6.80
2018,04,24,05,33,6.80
2018,04,24,05,34,6.80
2018,04,24,05,35,6.80
2018,04,24,05,36,6.90
2018,04,24,05,37,6.90
2018,04,24,05,38,6.90
2018,04,24,05,39,6.90
2018,04,24,05,40,6.80
2018,04,24,05,41,6.80
2018,04,24,05,42,6.80
2018,04,24,05,43,6.80
2018,04,24,05,44,6.70
2018,04,24,05,45,6.70
2018,04,24,05,46,6.70
2018,04,24,05,47,6.60
2018,04,24,05,48,6.60
2018,04,24,05,49,6.50
2018,04,24,05,50,6.40
2018,04,24,05,51,6.30
2018,04,24,05,52,6.30
2018,04,24,05,53,6.30
2018,04,24,05,54,6.20
2018,04,24,05,55,6.20
2018,04,24,05,56,6.20
2018,04,24,05,57,6.10
2018,04,24,05,58,6.10
2018,04,24,05,59,6.10
2018,04,24,06,00,6.10
2018,04,24,06,01,6.10
2018,04,24,06,02,6.10
2018,04,24,06,03,6.10
2018,04,24,06,04,6.20
2018,04,24,06,05,6.20
2018,04,24,06,06,6.20
2018,04,24,06,07,6.20
2018,04,24,06,08,6.20
2018,04,24,06,09,6.30
2018,04,24,06,10,6.20
2018,04,24,06,11,6.30
2018,04,24,06,12,6.30
2018,04,24,06,13,6.30
2018,04,24,06,14,6.30
2018,04,24,06,15,6.30
2018,04,24,06,16,6.30
2018,04,24,06,17,6.30
2018,04,24,06,18,6.30
2018,04,24,06,19,6.30
2018,04,24,06,20,6.30
2018,04,24,06,21,6.30
2018,04,24,06,22,6.40
2018,04,24,06,23,6.40
2018,04,24,06,24,6.40
2018,04,24,06,25,6.40
2018,04,24,06,26,6.40
2018,04,24,06,27,6.40
2018,04,24,06,28,6.50
2018,04,24,06,29,6.50
2018,04,24,06,30,6.60
2018,04,24,06,31,6.60
2018,04,24,06,32,6.70
2018,04,24,06,33,6.70
2018,04,24,06,34,6.70
2018,04,24,06,35,6.70
2018,04,24,06,36,6.70
2018,04,24,06,37,6.80
2018,04,24,06,38,6.80
2018,04,24,06,39,6.70
2018,04,24,06,40,6.70
2018,04,24,06,41,6.70
2018,04,24,06,42,6.70
2018,04,24,06,43,6.70
2018,04,24,06,44,6.80
2018,04,24,06,45,6.80
2018,04,24,06,46,6.80
2018,04,24,06,47,6.80
2018,04,24,06,48,6.80
2018,04,24,06,49,6.80
2018,04,24,06,50,6.90
2018,04,24,06,51,6.90
2018,04,24,06,52,6.90
2018,04,24,06,53,6.90
2018,04,24,06,54,6.90
2018,04,24,06,55,6.90
2018,04,24,06,56,6.90
2018,04,24,06,57,7.00
2018,04,24,06,58,6.90
2018,04,24,06,59,6.90
2018,04,24,07,00,6.90
2018,04,24,07,01,6.80
2018,04,24,07,02,6.80
2018,04,24,07,03,6.80
2018,04,24,07,04,6.70
2018,04,24,07,05,6.70
2018,04,24,07,06,6.70
2018,04,24,07,07,6.70
2018,04,24,07,08,6.70
2018,04,24,07,09,6.70
2018,04,24,07,10,6.70
2018,04,24,07,11,6.70
2018,04,24,07,12,6.70
2018,04,24,07,13,6.70
2018,04,24,07,14,6.80
2018,04,24,07,15,6.80
2018,04,24,07,16,6.80
2018,04,24,07,17,6.90
2018,04,24,07,18,6.90
2018,04,24,07,19,7.00
2018,04,24,07,20,7.00
2018,04,24,07,21,7.10
2018,04,24,07,22,7.20
2018,04,24,07,23,7.20
2018,04,24,07,24,7.30
2018,04,24,07,25,7.40
2018,04,24,07,26,7.50
2018,04,24,07,27,7.50
2018,04,24,07,28,7.60
2018,04,24,07,29,7.70
2018,04,24,07,30,7.80
2018,04,24,07,31,7.90
2018,04,24,07,32,8.00
2018,04,24,07,33,8.10
2018,04,24,07,34,8.20
2018,04,24,07,35,8.40
2018,04,24,07,36,8.50
2018,04,24,07,37,8.60
2018,04,24,07,38,8.70
2018,04,24,07,39,8.80
2018,04,24,07,40,8.90
2018,04,24,07,41,8.90
2018,04,24,07,42,9.00
2018,04,24,07,43,9.10
2018,04,24,07,44,9.10
2018,04,24,07,45,9.20
2018,04,24,07,46,9.30
2018,04,24,07,47,9.30
2018,04,24,07,48,9.30
2018,04,24,07,49,9.40
2018,04,24,07,50,9.50
2018,04,24,07,51,9.50
2018,04,24,07,52,9.60
2018,04,24,07,53,9.60
2018,04,24,07,54,9.70
2018,04,24,07,55,9.70
2018,04,24,07,56,9.70
2018,04,24,07,57,9.80
2018,04,24,07,58,9.80
2018,04,24,07,59,9.90
2018,04,24,08,00,9.90
2018,04,24,08,01,9.90
2018,04,24,08,02,10.00
2018,04,24,08,03,10.10
2018,04,24,08,04,10.10
2018,04,24,08,05,10.20
2018,04,24,08,06,10.20
2018,04,24,08,07,10.20
2018,04,24,08,08,10.20
2018,04,24,08,09,10.30
2018,04,24,08,10,10.30
2018,04,24,08,11,10.30
2018,04,24,08,12,10.40
2018,04,24,08,13,10.40
2018,04,24,08,14,10.40
2018,04,24,08,15,10.40
2018,04,24,08,16,10.50
2018,04,24,08,17,10.50
2018,04,24,08,18,10.50
2018,04,24,08,19,10.60
2018,04,24,08,20,10.60
2018,04,24,08,21,10.60
2018,04,24,08,22,10.60
2018,04,24,08,23,10.60
2018,04,24,08,24,10.70
2018,04,24,08,25,10.70
2018,04,24,08,26,10.70
2018,04,24,08,27,10.70
2018,04,24,08,28,10.80
2018,04,24,08,29,10.80
2018,04,24,08,30,10.80
2018,04,24,08,31,10.80
2018,04,24,08,32,10.80
2018,04,24,08,33,10.90
2018,04,24,08,34,10.90
2018,04,24,08,35,10.90
2018,04,24,08,36,11.00
2018,04,24,08,37,11.00
2018,04,24,08,38,11.10
2018,04,24,08,39,11.10
2018,04,24,08,40,11.10
2018,04,24,08,41,11.20
2018,04,24,08,42,11.20
2018,04,24,08,43,11.30
2018,04,24,08,44,11.30
2018,04,24,08,45,11.30
2018,04,24,08,46,11.40
2018,04,24,08,47,11.40
2018,04,24,08,48,11.50
2018,04,24,08,49,11.50
2018,04,24,08,50,11.60
2018,04,24,08,51,11.70
2018,04,24,08,52,11.70
2018,04,24,08,53,11.70
2018,04,24,08,54,11.70
2018,04,24,08,55,11.80
2018,04,24,08,56,11.80
2018,04,24,08,57,11.80
2018,04,24,08,58,11.80
2018,04,24,08,59,11.80
2018,04,24,09,00,11.90
2018,04,24,09,01,11.90
2018,04,24,09,02,11.90
2018,04,24,09,03,11.90
2018,04,24,09,04,12.00
2018,04,24,09,05,12.00
2018,04,24,09,06,12.00
2018,04,24,09,07,12.00
2018,04,24,09,08,12.00
2018,04,24,09,09,12.00
2018,04,24,09,10,12.10
2018,04,24,09,11,12.10
2018,04,24,09,12,12.20
2018,04,24,09,13,12.20
2018,04,24,09,14,12.20
2018,04,24,09,15,12.30
2018,04,24,09,16,12.30
2018,04,24,09,17,12.40
2018,04,24,09,18,12.50
2018,04,24,09,19,12.50
2018,04,24,09,20,12.50
2018,04,24,09,21,12.50
2018,04,24,09,22,12.50
2018,04,24,09,23,12.60
2018,04,24,09,24,12.70
2018,04,24,09,25,12.80
2018,04,24,09,26,12.80
2018,04,24,09,27,12.80
2018,04,24,09,28,12.90
2018,04,24,09,29,13.00
2018,04,24,09,30,13.10
2018,04,24,09,31,13.20
2018,04,24,09,32,13.20
2018,04,24,09,33,13.30
2018,04,24,09,34,13.30
2018,04,24,09,35,13.40
2018,04,24,09,36,13.40
2018,04,24,09,37,13.40
2018,04,24,09,38,13.50
2018,04,24,09,39,13.60
2018,04,24,09,40,13.60
2018,04,24,09,41,13.80
2018,04,24,09,42,13.90
2018,04,24,09,43,14.00
2018,04,24,09,44,14.10
2018,04,24,09,45,14.30
2018,04,24,09,46,14.40
2018,04,24,09,47,14.40
2018,04,24,09,48,14.40
2018,04,24,09,49,14.50
2018,04,24,09,50,14.50
2018,04,24,09,51,14.50
2018,04,24,09,52,14.40
2018,04,24,09,53,14.50
2018,04,24,09,54,14.60
2018,04,24,09,55,14.70
2018,04,24,09,56,14.80
2018,04,24,09,57,14.90
2018,04,24,09,58,14.90
2018,04,24,09,59,14.90
2018,04,24,10,00,15.00
2018,04,24,10,01,15.10
2018,04,24,10,02,15.10
2018,04,24,10,03,15.20
2018,04,24,10,04,15.30
2018,04,24,10,05,15.40
2018,04,24,10,06,15.60
2018,04,24,10,07,15.70
2018,04,24,10,08,15.80
2018,04,24,10,09,15.90
2018,04,24,10,10,16.00
2018,04,24,10,11,16.00
2018,04,24,10,12,16.00
2018,04,24,10,13,16.00
2018,04,24,10,14,16.00
2018,04,24,10,15,16.10
2018,04,24,10,16,16.10
2018,04,24,10,17,16.10
2018,04,24,10,18,16.20
2018,04,24,10,19,16.20
2018,04,24,10,20,16.20
2018,04,24,10,21,16.30
2018,04,24,10,22,16.30
2018,04,24,10,23,16.40
2018,04,24,10,24,16.30
2018,04,24,10,25,16.30
2018,04,24,10,26,16.40
2018,04,24,10,27,16.50
2018,04,24,10,28,16.50
2018,04,24,10,29,16.50
2018,04,24,10,30,16.50
2018,04,24,10,31,16.40
2018,04,24,10,32,16.30
2018,04,24,10,33,16.30
2018,04,24,10,34,16.30
2018,04,24,10,35,16.20
2018,04,24,10,36,16.20
2018,04,24,10,37,16.20
2018,04,24,10,38,16.30
2018,04,24,10,39,16.40
2018,04,24,10,40,16.40
2018,04,24,10,41,16.40
2018,04,24,10,42,16.50
2018,04,24,10,43,16.50
2018,04,24,10,44,16.50
2018,04,24,10,45,16.50
2018,04,24,10,46,16.50
2018,04,24,10,47,16.50
2018,04,24,10,48,16.40
2018,04,24,10,49,16.40
2018,04,24,10,50,16.40
2018,04,24,10,51,16.30
2018,04,24,10,52,16.20
2018,04,24,10,53,16.20
2018,04,24,10,54,16.20
2018,04,24,10,55,16.20
2018,04,24,10,56,16.20
2018,04,24,10,57,16.20
2018,04,24,10,58,16.30
2018,04,24,10,59,16.30
2018,04,24,11,00,16.30
2018,04,24,11,01,16.30
2018,04,24,11,02,16.30
2018,04,24,11,03,16.30
2018,04,24,11,04,16.30
2018,04,24,11,05,16.30
2018,04,24,11,06,16.30
2018,04,24,11,07,16.40
2018,04,24,11,08,16.40
2018,04,24,11,09,16.50
2018,04,24,11,10,16.50
2018,04,24,11,11,16.60
2018,04,24,11,12,16.60
2018,04,24,11,13,16.60
2018,04,24,11,14,16.60
2018,04,24,11,15,16.60
2018,04,24,11,16,16.70
2018,04,24,11,17,16.70
2018,04,24,11,18,16.80
2018,04,24,11,19,16.80
2018,04,24,11,20,16.90
2018,04,24,11,21,17.00
2018,04,24,11,22,17.10
2018,04,24,11,23,17.10
2018,04,24,11,24,17.10
2018,04,24,11,25,17.10
2018,04,24,11,26,17.00
2018,04,24,11,27,16.90
2018,04,24,11,28,16.90
2018,04,24,11,29,16.90
2018,04,24,11,30,17.00
2018,04,24,11,31,17.00
2018,04,24,11,32,17.10
2018,04,24,11,33,17.20
2018,04,24,11,34,17.10
2018,04,24,11,35,17.10
2018,04,24,11,36,17.10
2018,04,24,11,37,17.10
2018,04,24,11,38,17.20
2018,04,24,11,39,17.10
2018,04,24,11,40,17.10
2018,04,24,11,41,17.00
2018,04,24,11,42,16.90
2018,04,24,11,43,16.90
2018,04,24,11,44,16.80
2018,04,24,11,45,16.80
2018,04,24,11,46,16.70
2018,04,24,11,47,16.70
2018,04,24,11,48,16.70
2018,04,24,11,49,16.60
2018,04,24,11,50,16.60
2018,04,24,11,51,16.60
2018,04,24,11,52,16.60
2018,04,24,11,53,16.60
2018,04,24,11,54,16.60
2018,04,24,11,55,16.60
2018,04,24,11,56,16.60
2018,04,24,11,57,16.80
2018,04,24,11,58,16.90
2018,04,24,11,59,17.00
2018,04,24,12,00,17.00
2018,04,24,12,01,17.20
2018,04,24,12,02,17.20
2018,04,24,12,03,17.20
2018,04,24,12,04,17.30
2018,04,24,12,05,17.20
2018,04,24,12,06,17.20
2018,04,24,12,07,17.10
2018,04,24,12,08,17.10
2018,04,24,12,09,17.10
2018,04,24,12,10,17.10
2018,04,24,12,11,17.00
2018,04,24,12,12,17.10
2018,04,24,12,13,17.10
2018,04,24,12,14,17.10
2018,04,24,12,15,17.20
2018,04,24,12,16,17.30
2018,04,24,12,17,17.20
2018,04,24,12,18,17.30
2018,04,24,12,19,17.20
2018,04,24,12,20,17.20
2018,04,24,12,21,17.20
2018,04,24,12,22,17.20
2018,04,24,12,23,17.10
2018,04,24,12,24,17.10
2018,04,24,12,25,17.00
2018,04,24,12,26,16.90
2018,04,24,12,27,16.90
2018,04,24,12,28,16.80
2018,04,24,12,29,16.80
2018,04,24,12,30,16.80
2018,04,24,12,31,16.80
2018,04,24,12,32,16.80
2018,04,24,12,33,16.80
2018,04,24,12,34,16.80
2018,04,24,12,35,16.90
2018,04,24,12,36,16.80
2018,04,24,12,37,16.80
2018,04,24,12,38,16.80
2018,04,24,12,39,16.80
2018,04,24,12,40,16.80
2018,04,24,12,41,16.70
2018,04,24,12,42,16.70
2018,04,24,12,43,16.60
2018,04,24,12,44,16.60
2018,04,24,12,45,16.60
2018,04,24,12,46,16.70
2018,04,24,12,47,16.70
2018,04,24,12,48,16.70
2018,04,24,12,49,16.80
2018,04,24,12,50,16.80
2018,04,24,12,51,16.80
2018,04,24,12,52,16.90
2018,04,24,12,53,16.90
2018,04,24,12,54,17.00
2018,04,24,12,55,17.10
2018,04,24,12,56,17.10
2018,04,24,12,57,17.10
2018,04,24,12,58,17.10
2018,04,24,12,59,17.10
2018,04,24,13,00,17.10
2018,04,24,13,01,17.10
2018,04,24,13,02,17.10
2018,04,24,13,03,17.10
2018,04,24,13,04,17.20
2018,04,24,13,05,17.20
2018,04,24,13,06,17.30
2018,04,24,13,07,17.40
2018,04,24,13,08,17.50
2018,04,24,13,09,17.60
2018,04,24,13,10,17.70
2018,04,24,13,11,17.70
2018,04,24,13,12,17.80
2018,04,24,13,13,17.80
2018,04,24,13,14,17.90
2018,04,24,13,15,17.90
2018,04,24,13,16,17.90
2018,04,24,13,17,18.00
2018,04,24,13,18,18.10
2018,04,24,13,19,18.20
2018,04,24,13,20,18.30
2018,04,24,13,21,18.40
2018,04,24,13,22,18.50
2018,04,24,13,23,18.50
2018,04,24,13,24,18.60
2018,04,24,13,25,18.60
2018,04,24,13,26,18.60
2018,04,24,13,27,18.60
2018,04,24,13,28,18.50
2018,04,24,13,29,18.50
2018,04,24,13,30,18.40
2018,04,24,13,31,18.30
2018,04,24,13,32,18.40
2018,04,24,13,33,18.40
2018,04,24,13,34,18.40
2018,04,24,13,35,18.40
2018,04,24,13,36,18.40
2018,04,24,13,37,18.50
2018,04,24,13,38,18.60
2018,04,24,13,39,18.70
2018,04,24,13,40,18.80
2018,04,24,13,41,18.90
2018,04,24,13,42,19.00
2018,04,24,13,43,19.10
2018,04,24,13,44,19.10
2018,04,24,13,45,19.10
2018,04,24,13,46,19.00
2018,04,24,13,47,19.00
2018,04,24,13,48,19.00
2018,04,24,13,49,19.10
2018,04,24,13,50,19.00
2018,04,24,13,51,19.00
2018,04,24,13,52,19.00
2018,04,24,13,53,18.90
2018,04,24,13,54,18.90
2018,04,24,13,55,19.00
2018,04,24,13,56,19.00
2018,04,24,13,57,18.90
2018,04,24,13,58,18.90
2018,04,24,13,59,18.90
2018,04,24,14,00,18.90
2018,04,24,14,01,19.00
2018,04,24,14,02,19.00
2018,04,24,14,03,19.00
2018,04,24,14,04,19.10
2018,04,24,14,05,19.10
2018,04,24,14,06,19.00
2018,04,24,14,07,19.00
2018,04,24,14,08,19.10
2018,04,24,14,09,19.10
2018,04,24,14,10,19.10
2018,04,24,14,11,19.10
2018,04,24,14,12,19.10
2018,04,24,14,13,19.00
2018,04,24,14,14,18.90
2018,04,24,14,15,18.80
2018,04,24,14,16,18.80
2018,04,24,14,17,18.80
2018,04,24,14,18,18.70
2018,04,24,14,19,18.70
2018,04,24,14,20,18.70
2018,04,24,14,21,18.70
2018,04,24,14,22,18.70
2018,04,24,14,23,18.60
2018,04,24,14,24,18.60
2018,04,24,14,25,18.70
2018,04,24,14,26,18.70
2018,04,24,14,27,18.70
2018,04,24,14,28,18.70
2018,04,24,14,29,18.70
2018,04,24,14,30,18.70
2018,04,24,14,31,18.70
2018,04,24,14,32,18.70
2018,04,24,14,33,18.80
2018,04,24,14,34,18.90
2018,04,24,14,35,19.00
2018,04,24,14,36,19.00
2018,04,24,14,37,19.00
2018,04,24,14,38,19.00
2018,04,24,14,39,19.00
2018,04,24,14,40,18.90
2018,04,24,14,41,19.00
2018,04,24,14,42,19.00
2018,04,24,14,43,19.00
2018,04,24,14,44,18.90
2018,04,24,14,45,18.90
2018,04,24,14,46,18.90
2018,04,24,14,47,18.80
2018,04,24,14,48,18.90
2018,04,24,14,49,19.00
2018,04,24,14,50,19.10
2018,04,24,14,51,19.10
2018,04,24,14,52,19.10
2018,04,24,14,53,19.10
2018,04,24,14,54,19.10
2018,04,24,14,55,19.20
2018,04,24,14,56,19.30
2018,04,24,14,57,19.30
2018,04,24,14,58,19.30
2018,04,24,14,59,19.30
2018,04,24,15,00,19.20
2018,04,24,15,01,19.20
2018,04,24,15,02,19.20
2018,04,24,15,03,19.10
2018,04,24,15,04,19.20
2018,04,24,15,05,19.10
2018,04,24,15,06,19.20
2018,04,24,15,07,19.10
2018,04,24,15,08,19.10
2018,04,24,15,09,19.20
2018,04,24,15,10,19.20
2018,04,24,15,11,19.20
2018,04,24,15,12,19.20
2018,04,24,15,13,19.20
2018,04,24,15,14,19.20
2018,04,24,15,15,19.30
2018,04,24,15,16,19.30
2018,04,24,15,17,19.30
2018,04,24,15,18,19.20
2018,04,24,15,19,19.20
2018,04,24,15,20,19.20
2018,04,24,15,21,19.20
2018,04,24,15,22,19.20
2018,04,24,15,23,19.20
2018,04,24,15,24,19.30
2018,04,24,15,25,19.30
2018,04,24,15,26,19.40
2018,04,24,15,27,19.40
2018,04,24,15,28,19.40
2018,04,24,15,29,19.40
2018,04,24,15,30,19.50
2018,04,24,15,31,19.50
2018,04,24,15,32,19.60
2018,04,24,15,33,19.60
2018,04,24,15,34,19.60
2018,04,24,15,35,19.60
2018,04,24,15,36,19.70
2018,04,24,15,37,19.70
2018,04,24,15,38,19.70
2018,04,24,15,39,19.60
2018,04,24,15,40,19.60
2018,04,24,15,41,19.60
2018,04,24,15,42,19.70
2018,04,24,15,43,19.70
2018,04,24,15,44,19.70
2018,04,24,15,45,19.70
2018,04,24,15,46,19.60
2018,04,24,15,47,19.60
2018,04,24,15,48,19.50
2018,04,24,15,49,19.50
2018,04,24,15,50,19.60
2018,04,24,15,51,19.60
2018,04,24,15,52,19.70
2018,04,24,15,53,19.70
2018,04,24,15,54,19.70
2018,04,24,15,55,19.70
2018,04,24,15,56,19.70
2018,04,24,15,57,19.70
2018,04,24,15,58,19.60
2018,04,24,15,59,19.60
2018,04,24,16,00,19.60
2018,04,24,16,01,19.60
2018,04,24,16,02,19.60
2018,04,24,16,03,19.60
2018,04,24,16,04,19.60
2018,04,24,16,05,19.70
2018,04,24,16,06,19.70
2018,04,24,16,07,19.80
2018,04,24,16,08,19.80
2018,04,24,16,09,19.80
2018,04,24,16,10,19.80
2018,04,24,16,11,19.70
2018,04,24,16,12,19.70
2018,04,24,16,13,19.70
2018,04,24,16,14,19.70
2018,04,24,16,15,19.70
2018,04,24,16,16,19.70
2018,04,24,16,17,19.70
2018,04,24,16,18,19.70
2018,04,24,16,19,19.70
2018,04,24,16,20,19.60
2018,04,24,16,21,19.60
2018,04,24,16,22,19.60
2018,04,24,16,23,19.60
2018,04,24,16,24,19.60
2018,04,24,16,25,19.60
2018,04,24,16,26,19.60
2018,04,24,16,27,19.60
2018,04,24,16,28,19.70
2018,04,24,16,29,19.70
2018,04,24,16,30,19.70
2018,04,24,16,31,19.70
2018,04,24,16,32,19.70
2018,04,24,16,33,19.70
2018,04,24,16,34,19.70
2018,04,24,16,35,19.80
2018,04,24,16,36,19.80
2018,04,24,16,37,19.90
2018,04,24,16,38,20.00
2018,04,24,16,39,20.10
2018,04,24,16,40,20.10
2018,04,24,16,41,20.10
2018,04,24,16,42,20.20
2018,04,24,16,43,20.10
2018,04,24,16,44,20.10
2018,04,24,16,45,20.10
2018,04,24,16,46,20.10
2018,04,24,16,47,20.10
2018,04,24,16,48,20.10
2018,04,24,16,49,20.00
2018,04,24,16,50,20.00
2018,04,24,16,51,20.00
2018,04,24,16,52,19.90
2018,04,24,16,53,19.90
2018,04,24,16,54,19.90
2018,04,24,16,55,19.80
2018,04,24,16,56,19.80
2018,04,24,16,57,19.70
2018,04,24,16,58,19.70
2018,04,24,16,59,19.60
2018,04,24,17,00,19.60
2018,04,24,17,01,19.60
2018,04,24,17,02,19.70
2018,04,24,17,03,19.70
2018,04,24,17,04,19.70
2018,04,24,17,05,19.60
2018,04,24,17,06,19.60
2018,04,24,17,07,19.60
2018,04,24,17,08,19.60
2018,04,24,17,09,19.50
2018,04,24,17,10,19.50
2018,04,24,17,11,19.50
2018,04,24,17,12,19.50
2018,04,24,17,13,19.50
2018,04,24,17,14,19.40
2018,04,24,17,15,19.40
2018,04,24,17,16,19.40
2018,04,24,17,17,19.40
2018,04,24,17,18,19.40
2018,04,24,17,19,19.50
2018,04,24,17,20,19.50
2018,04,24,17,21,19.60
2018,04,24,17,22,19.60
2018,04,24,17,23,19.60
2018,04,24,17,24,19.70
2018,04,24,17,25,19.70
2018,04,24,17,26,19.70
2018,04,24,17,27,19.80
2018,04,24,17,28,19.80
2018,04,24,17,29,19.80
2018,04,24,17,30,19.80
2018,04,24,17,31,19.80
2018,04,24,17,32,19.80
2018,04,24,17,33,19.80
2018,04,24,17,34,19.80
2018,04,24,17,35,19.80
2018,04,24,17,36,19.90
2018,04,24,17,37,19.90
2018,04,24,17,38,19.90
2018,04,24,17,39,20.00
2018,04,24,17,40,20.00